User: anonymous   Login
Location: Treviso
(45.6669°N, 12.2430°E)
Time: 18:51:49
(UTC+02:00)
Language:

NOAA 15 - Orbit

View from above orbital plane
View from above orbital plane
View from above satellite
View from above satellite

Ground track
Ground track

The orbit data is extracted from the following two-line orbital elements,

1 25338U 98030A   19291.93243114 +.00000014 +00000-0 +24715-4 0  9998
2 25338 098.7405 312.9421 0009467 245.2594 114.7601 14.25935266114419
Epoch (UTC): 18 October 2019 22:22:42
Eccentricity: 0.0009467
inclination: 98.7405°
perigee height: 798 km
apogee height: 812 km
right ascension of ascending node: 312.9421°
argument of perigee: 245.2594°
revolutions per day: 14.25935266
mean anomaly at epoch: 114.7601°
orbit number at epoch: 11441

The dashed part of the orbit path shows where the satellite is in the earth's shadow,  

DLR